• In Romania
  • List of Countries
  • For 7 days
  • Water Temperature
  • Satellite Maps
  • Weather Map
  • Weather Widgets
  • user-avatar
    Login

    Hourly Weather Canberra

    Today, 20 February, Monday

    Time Temperature Precipitation Wind Pressure Humidity
    00:00 +10°C° 0 mm 3 mps 703 mmHg 62%
    01:00 +10°C° 0 mm 3 mps 704 mmHg 68%
    02:00 +9°C° 0 mm 3 mps 704 mmHg 70%
    03:00 +9°C° 0 mm 3 mps 704 mmHg 72%
    04:00 +8°C° 0 mm 3 mps 704 mmHg 75%
    05:00 +8°C° 0 mm 3 mps 704 mmHg 71%
    06:00 +9°C° 0 mm 3 mps 705 mmHg 67%
    07:00 +8°C° 0 mm 4 mps 705 mmHg 64%
    08:00 +11°C° 0 mm 4 mps 706 mmHg 54%
    09:00 +13°C° 0 mm 4 mps 706 mmHg 45%
    10:00 +15°C° 0 mm 5 mps 706 mmHg 36%
    11:00 +17°C° 0 mm 5 mps 706 mmHg 33%
    12:00 +19°C° 0 mm 5 mps 706 mmHg 29%
    13:00 +20°C° 0 mm 5 mps 706 mmHg 26%
    14:00 +21°C° 0 mm 4 mps 706 mmHg 26%
    15:00 +21°C° 0 mm 4 mps 706 mmHg 25%
    16:00 +21°C° 0 mm 4 mps 706 mmHg 25%
    17:00 +19°C° 0 mm 3 mps 707 mmHg 31%
    18:00 +17°C° 0 mm 2 mps 707 mmHg 37%
    19:00 +14°C° 0 mm 2 mps 707 mmHg 44%
    20:00 +13°C° 0 mm 1 mps 708 mmHg 47%
    21:00 +12°C° 0 mm 1 mps 708 mmHg 51%
    22:00 +11°C° 0 mm 1 mps 709 mmHg 55%
    23:00 +10°C° 0 mm 1 mps 709 mmHg 56%

    Tomorrow, 21 February, Tuesday

    Time Temperature Precipitation Wind Pressure Humidity
    00:00 +10°C° 0 mm 1 mps 709 mmHg 57%
    01:00 +9°C° 0 mm 1 mps 709 mmHg 58%
    02:00 +9°C° 0 mm 1 mps 709 mmHg 59%
    03:00 +9°C° 0 mm 1 mps 709 mmHg 61%
    04:00 +8°C° 0 mm 1 mps 709 mmHg 62%
    05:00 +10°C° 0 mm 1 mps 710 mmHg 57%
    06:00 +11°C° 0 mm 1 mps 710 mmHg 52%
    07:00 +13°C° 0 mm 1 mps 711 mmHg 47%
    08:00 +18°C° 0 mm 1 mps 712 mmHg 39%
    09:00 +19°C° 0 mm 0 mps 712 mmHg 32%
    10:00 +23°C° 0 mm 0 mps 713 mmHg 25%
    11:00 +26°C° 0 mm 1 mps 713 mmHg 22%
    12:00 +27°C° 0 mm 1 mps 712 mmHg 20%
    13:00 +28°C° 0 mm 1 mps 712 mmHg 18%
    14:00 +28°C° 0 mm 1 mps 712 mmHg 18%
    15:00 +28°C° 0 mm 2 mps 711 mmHg 19%
    16:00 +28°C° 0 mm 2 mps 711 mmHg 19%
    17:00 +24°C° 0 mm 2 mps 711 mmHg 31%
    18:00 +20°C° 0 mm 2 mps 711 mmHg 43%
    19:00 +17°C° 0 mm 2 mps 710 mmHg 56%
    20:00 +16°C° 0 mm 2 mps 711 mmHg 66%
    21:00 +15°C° 0 mm 2 mps 711 mmHg 76%
    22:00 +14°C° 0 mm 1 mps 712 mmHg 87%
    23:00 +14°C° 0 mm 1 mps 712 mmHg 90%

    Day after tomorrow, 22 February, Wednesday

    Time Temperature Precipitation Wind Pressure Humidity
    00:00 +14°C° 0 mm 1 mps 712 mmHg 93%
    01:00 +13°C° 0 mm 1 mps 711 mmHg 96%
    02:00 +13°C° 0 mm 1 mps 711 mmHg 97%
    03:00 +12°C° 0 mm 1 mps 711 mmHg 98%
    04:00 +12°C° 0 mm 1 mps 710 mmHg 99%
    05:00 +13°C° 0 mm 1 mps 711 mmHg 96%
    06:00 +14°C° 0 mm 1 mps 711 mmHg 93%
    07:00 +15°C° 0 mm 1 mps 711 mmHg 89%
    08:00 +20°C° 0 mm 1 mps 712 mmHg 72%
    09:00 +23°C° 0 mm 2 mps 712 mmHg 55%
    10:00 +26°C° 0 mm 2 mps 712 mmHg 38%
    11:00 +28°C° 0 mm 3 mps 711 mmHg 32%
    12:00 +30°C° 0 mm 3 mps 711 mmHg 26%
    13:00 +31°C° 0 mm 3 mps 710 mmHg 20%
    14:00 +33°C° 0 mm 4 mps 710 mmHg 19%
    15:00 +33°C° 0 mm 4 mps 710 mmHg 19%
    16:00 +33°C° 0 mm 4 mps 709 mmHg 18%
    17:00 +29°C° 0 mm 3 mps 709 mmHg 25%
    18:00 +26°C° 0 mm 2 mps 709 mmHg 31%
    19:00 +23°C° 0 mm 2 mps 709 mmHg 38%
    20:00 +22°C° 0 mm 1 mps 709 mmHg 45%
    21:00 +20°C° 0 mm 1 mps 709 mmHg 52%
    22:00 +19°C° 0 mm 1 mps 709 mmHg 58%
    23:00 +18°C° 0 mm 1 mps 709 mmHg 66%

    23 February, Thursday

    Time Temperature Precipitation Wind Pressure Humidity
    00:00 +16°C° 0 mm 1 mps 709 mmHg 74%
    01:00 +15°C° 0 mm 1 mps 708 mmHg 81%
    02:00 +15°C° 0 mm 1 mps 708 mmHg 81%
    03:00 +14°C° 0 mm 1 mps 709 mmHg 81%
    04:00 +14°C° 0 mm 1 mps 709 mmHg 80%
    05:00 +16°C° 0 mm 1 mps 710 mmHg 73%
    06:00 +18°C° 0 mm 1 mps 711 mmHg 65%
    07:00 +20°C° 0 mm 1 mps 712 mmHg 57%
    08:00 +23°C° 0 mm 1 mps 712 mmHg 49%
    09:00 +26°C° 0 mm 1 mps 713 mmHg 40%
    10:00 +30°C° 0 mm 1 mps 713 mmHg 31%
    11:00 +31°C° 0 mm 2 mps 713 mmHg 27%
    12:00 +34°C° 0 mm 2 mps 713 mmHg 23%
    13:00 +36°C° 0 mm 2 mps 713 mmHg 19%
    14:00 +35°C° 0 mm 2 mps 712 mmHg 20%
    15:00 +35°C° 0 mm 2 mps 712 mmHg 21%
    16:00 +35°C° 0 mm 3 mps 712 mmHg 22%
    17:00 +30°C° 0 mm 3 mps 712 mmHg 36%
    18:00 +26°C° 0 mm 3 mps 712 mmHg 51%
    19:00 +22°C° 0 mm 3 mps 712 mmHg 66%
    20:00 +20°C° 0 mm 3 mps 712 mmHg 74%
    21:00 +19°C° 0 mm 2 mps 712 mmHg 82%
    22:00 +18°C° 0 mm 2 mps 713 mmHg 90%
    23:00 +17°C° 0 mm 2 mps 713 mmHg 91%

    24 February, Friday

    Time Temperature Precipitation Wind Pressure Humidity
    00:00 +17°C° 0 mm 2 mps 712 mmHg 91%
    01:00 +16°C° 0 mm 2 mps 712 mmHg 92%
    02:00 +16°C° 0 mm 1 mps 712 mmHg 93%
    03:00 +16°C° 0 mm 1 mps 712 mmHg 94%
    04:00 +16°C° 0 mm 1 mps 712 mmHg 95%
    05:00 +18°C° 0 mm 1 mps 713 mmHg 93%
    06:00 +19°C° 0 mm 1 mps 713 mmHg 90%
    07:00 +19°C° 0 mm 1 mps 714 mmHg 88%
    08:00 +22°C° 0 mm 1 mps 714 mmHg 74%
    09:00 +25°C° 0 mm 1 mps 714 mmHg 60%
    10:00 +28°C° 0 mm 1 mps 714 mmHg 46%
    11:00 +30°C° 0 mm 2 mps 714 mmHg 39%
    12:00 +32°C° 0 mm 2 mps 714 mmHg 33%
    13:00 +35°C° 0 mm 2 mps 713 mmHg 26%
    14:00 +35°C° 0 mm 2 mps 713 mmHg 27%
    15:00 +34°C° 0 mm 3 mps 712 mmHg 29%
    16:00 +33°C° 0 mm 3 mps 712 mmHg 30%
    17:00 +29°C° 0.1 mm 3 mps 712 mmHg 47%
    18:00 +25°C° 0.1 mm 3 mps 712 mmHg 63%
    19:00 +21°C° 0.1 mm 3 mps 712 mmHg 79%
    20:00 +20°C° 0.2 mm 3 mps 712 mmHg 83%
    21:00 +19°C° 0.2 mm 3 mps 713 mmHg 86%
    22:00 +19°C° 0.2 mm 3 mps 713 mmHg 90%
    23:00 +18°C° 0 mm 2 mps 713 mmHg 90%

    25 February, Saturday

    Time Temperature Precipitation Wind Pressure Humidity
    00:00 +18°C° 0 mm 2 mps 713 mmHg 91%
    01:00 +17°C° 0 mm 2 mps 712 mmHg 91%
    02:00 +17°C° 0 mm 2 mps 712 mmHg 91%
    03:00 +17°C° 0 mm 2 mps 712 mmHg 90%
    04:00 +17°C° 0 mm 2 mps 712 mmHg 90%
    05:00 +17°C° 0 mm 2 mps 713 mmHg 89%
    06:00 +17°C° 0 mm 2 mps 713 mmHg 88%
    07:00 +18°C° 0 mm 1 mps 713 mmHg 87%
    08:00 +19°C° 0 mm 2 mps 714 mmHg 78%
    09:00 +21°C° 0 mm 2 mps 714 mmHg 68%
    10:00 +24°C° 0 mm 2 mps 714 mmHg 59%
    11:00 +25°C° 0 mm 2 mps 714 mmHg 54%
    12:00 +26°C° 0 mm 2 mps 714 mmHg 49%
    13:00 +27°C° 0 mm 2 mps 713 mmHg 44%
    14:00 +27°C° 0 mm 2 mps 713 mmHg 45%
    15:00 +26°C° 0 mm 3 mps 713 mmHg 46%
    16:00 +26°C° 0 mm 3 mps 712 mmHg 47%
    17:00 +22°C° 0 mm 4 mps 713 mmHg 55%
    18:00 +19°C° 0 mm 4 mps 713 mmHg 63%
    19:00 +16°C° 0 mm 5 mps 713 mmHg 72%
    20:00 +15°C° 0 mm 4 mps 714 mmHg 74%
    21:00 +14°C° 0 mm 4 mps 714 mmHg 77%
    22:00 +13°C° 0 mm 4 mps 714 mmHg 80%
    23:00 +13°C° 0 mm 4 mps 714 mmHg 80%
    Show more